SCP
3 4 4 3 2 2 2 2 2 1 1 1 1 1 1 0 0 0 0 0 0 0 0 0 0 0 0 0 0 0 0 0 0 0 0 0 0 0 0 0 0 0 0
3 4 4 3 2 2 2 2 2 2 1 1 1 1 0 0 0 0 0 0 0 0 0 0 0 0 0 0 0 0 0 0 0 0 0 0 0 0 0 0 0 0 0
4 4 4 3 3 2 2 2 2 2 1 1 1 0 0 0 0 0 0 0 0 0 0 0 0 0 0 0 0 0 0 0 0 0 0 0 0 0 0 0 0 0 0
4 4 4 3 3 2 2 2 2 2 1 1 1 0 0 0 0 0 0 0 0 0 0 0 0 0 0 0 0 0 0 0 0 0 0 0 0 0 0 0 0 0 0
3 4 4 4 3 2 2 2 2 1 1 1 1 0 0 0 0 0 0 0 0 0 0 0 0 0 0 0 0 0 0 0 0 0 0 0 0 0 0 0 0 0 0
3 3 4 4 3 2 2 2 1 1 1 1 1 0 0 0 0 0 0 0 0 0 0 0 0 0 0 0 0 0 0 0 0 0 0 0 0 0 0 0 0 0 0
3 3 4 4 3 2 2 1 1 1 1 1 1 0 0 0 0 0 0 0 0 0 0 0 0 0 0 0 0 0 0 0 0 0 0 0 0 0 0 0 0 0 0
3 3 4 3 3 2 2 1 1 1 1 1 1 0 0 0 0 0 0 0 0 0 0 0 0 0 0 0 0 0 0 0 0 0 0 0 0 0 0 0 0 0 0
3 4 4 4 3 3 2 2 1 1 1 1 1 0 0 0 0 0 0 0 0 0 0 0 0 0 0 0 0 1 1 0 0 0 0 0 0 0 0 0 0 0 0
3 3 4 3 3 3 3 2 1 1 1 1 1 0 0 0 0 0 0 0 0 0 0 0 0 0 1 1 1 1 1 0 0 0 0 0 0 0 0 0 0 0 0
3 3 3 3 3 3 3 2 2 1 1 1 1 1 0 0 0 0 0 0 1 1 1 1 1 1 1 1 1 1 1 0 0 0 0 0 0 0 0 0 0 0 0
3 3 3 3 3 3 3 2 2 1 1 1 1 1 0 0 0 0 0 0 1 1 1 1 1 1 1 1 0 0 0 0 0 0 0 0 0 0 0 1 1 1 1
3 3 3 3 3 3 3 2 2 1 1 1 1 1 1 0 0 0 0 0 1 1 1 1 1 1 1 1 1 1 1 0 0 0 0 1 1 1 1 1 1 1 1
3 3 2 3 3 3 2 2 1 1 1 1 1 1 1 0 0 0 0 0 0 1 1 0 1 1 1 1 1 1 1 0 0 0 1 1 1 1 1 1 1 1 1
3 3 3 2 2 2 2 2 1 1 1 1 1 1 1 0 0 0 0 0 0 0 0 0 0 1 1 1 1 1 0 0 0 0 1 1 1 1 1 1 2 1 1
4 3 3 2 1 1 1 1 1 1 1 2 1 1 1 0 0 0 0 0 0 0 0 0 0 0 0 0 0 0 0 0 0 0 1 1 1 1 1 1 2 2 1
3 3 2 2 1 1 1 1 1 1 1 1 1 1 1 0 0 0 0 0 0 0 0 0 0 0 0 0 0 0 0 0 0 0 0 1 1 1 1 1 1 1 1
3 2 2 1 1 1 1 1 1 1 1 0 0 0 0 0 0 0 0 0 0 0 0 0 0 0 0 0 0 0 0 0 0 0 0 0 1 1 1 1 1 1 1
2 2 2 1 1 1 1 1 1 0 0 0 0 0 0 0 0 0 0 0 0 0 0 0 0 0 0 0 0 0 0 0 0 0 0 0 1 1 1 1 1 1 1
1 1 2 1 1 1 1 0 0 0 0 0 0 0 1 1 0 0 0 0 0 0 0 0 0 0 0 0 0 0 0 0 0 0 0 0 0 1 1 1 1 1 1
1 2 1 1 1 0 0 0 0 0 0 0 0 0 0 0 0 0 0 0 0 0 0 0 0 0 0 0 0 0 0 0 0 0 0 0 0 0 1 1 1 1 1
2 2 1 1 1 0 0 0 0 0 0 0 0 0 0 0 0 0 0 0 0 0 0 0 0 0 0 0 0 0 0 0 0 0 0 0 0 0 0 1 1 1 1
2 1 1 1 1 1 1 0 0 0 0 0 0 0 0 0 0 0 0 0 0 0 0 0 0 0 0 0 0 0 0 0 0 0 0 0 0 0 0 0 1 1 1
1 1 1 1 1 1 1 0 0 0 0 0 0 0 0 0 0 0 0 0 0 0 0 0 0 0 0 0 0 0 0 0 0 0 0 0 0 0 0 0 0 1 1
1 1 1 1 1 1 0 0 0 0 0 0 0 0 0 0 0 0 0 0 0 0 0 0 0 0 0 0 0 0 0 0 0 0 0 0 0 0 0 0 0 0 1
1 1 1 1 1 0 0 0 0 0 0 0 0 0 0 0 0 0 0 0 0 0 0 0 0 0 0 0 0 0 0 0 0 0 0 0 0 0 0 0 0 0 0
Wind_Speed
8 9 16 17 17 18 18 18 18 18 17 17 17 16 16 15 14 13 12 11 11 10 10 9 9 10 10 10 10 10 11 11 11 12 12 12 13 13 14 15 15 12 16
12 12 17 17 18 18 18 18 17 17 17 16 16 15 15 14 13 12 12 11 10 10 10 10 9 10 10 10 10 11 10 10 11 11 12 12 13 13 14 14 14 10 15
15 12 14 17 17 18 18 17 17 16 16 16 15 14 14 13 13 12 11 10 10 10 10 10 9 10 10 10 11 10 10 10 10 11 11 7 9 13 13 14 14 15 14
14 10 12 18 18 18 17 16 16 16 15 15 14 13 13 12 12 11 10 10 10 10 10 9 9 10 10 10 10 10 10 10 10 10 6 6 7 12 13 13 14 14 14
12 9 13 19 18 18 17 16 15 15 15 14 13 13 12 12 11 10 10 9 9 9 9 9 9 9 9 9 9 9 9 9 9 8 5 5 5 11 13 13 13 14 13
10 9 12 18 18 17 17 16 15 14 14 13 12 11 11 11 10 10 9 9 9 8 8 8 8 8 8 8 8 7 8 8 8 5 5 5 5 10 12 12 13 13 13
9 7 10 17 17 17 16 15 14 14 13 12 11 11 10 9 9 8 8 8 8 8 8 7 7 7 7 7 6 6 6 8 6 5 5 5 5 9 11 12 12 12 12
10 8 9 17 17 16 15 14 14 13 12 12 11 10 9 9 8 8 7 7 7 7 7 6 6 6 5 5 5 5 5 6 6 5 5 4 6 9 11 11 11 12 12
9 8 6 8 11 15 15 14 13 12 12 11 10 10 9 9 8 7 6 6 6 6 6 5 5 5 4 4 4 3 4 6 5 4 5 4 7 10 11 11 11 11 11
7 7 6 6 6 6 8 12 12 12 11 10 10 9 8 8 7 7 5 5 6 5 5 5 5 4 3 3 2 2 3 4 3 4 3 5 9 11 11 11 12 11 11
8 6 6 6 5 5 5 9 10 11 10 9 7 9 6 2 2 2 4 6 6 5 4 4 4 3 3 1 1 1 3 1 2 2 2 6 10 11 12 12 12 12 12
10 8 6 6 5 5 5 4 3 3 4 3 2 3 2 2 1 2 2 5 5 4 4 3 3 2 1 1 1 1 1 1 1 2 3 8 10 12 13 13 13 13 12
9 8 7 6 5 4 3 3 2 2 2 2 2 2 2 2 0 0 0 1 1 1 1 1 1 0 1 1 0 0 0 1 1 1 3 7 9 12 13 13 14 14 13
7 7 6 6 5 4 3 3 3 2 2 2 2 2 2 1 1 0 0 0 0 0 0 0 0 0 0 0 0 0 1 1 1 1 3 7 8 11 13 14 14 14 14
7 6 6 6 5 4 3 3 3 3 3 3 2 2 3 2 2 1 1 0 0 0 0 1 0 0 0 0 0 0 1 1 1 2 2 6 7 9 12 14 14 15 15
6 6 6 5 4 4 3 2 3 2 2 2 2 2 3 2 2 2 1 1 0 0 0 1 1 1 0 0 0 1 1 1 2 2 2 4 6 8 10 12 14 14 15
6 5 5 5 4 3 3 3 3 2 3 2 2 2 3 3 2 2 1 1 0 1 1 1 1 1 1 1 1 1 1 2 2 3 3 2 3 6 9 10 12 13 15
5 5 4 5 5 4 3 3 2 2 2 2 2 2 3 3 3 2 2 1 1 1 1 2 1 1 1 1 1 1 2 2 3 3 3 3 2 3 6 10 11 12 14
5 6 5 5 5 5 4 3 2 2 2 2 2 2 2 3 3 3 2 1 1 1 1 1 1 1 0 1 1 2 2 2 3 3 3 3 3 3 3 6 9 11 14
4 5 6 5 4 4 4 3 2 3 2 2 2 2 2 2 3 3 2 2 2 2 1 1 1 1 0 1 2 2 2 2 2 2 2 2 2 3 4 4 4 6 12
6 5 6 6 4 4 3 3 3 2 2 1 1 2 2 2 3 3 2 2 2 2 1 2 1 1 1 1 1 2 3 2 2 2 2 2 2 2 3 3 3 4 4
7 7 6 6 6 5 3 3 2 3 2 2 1 1 1 2 2 3 3 2 2 2 2 1 2 1 1 1 1 1 2 3 3 3 2 2 3 2 2 3 3 4 4
7 7 7 6 6 5 4 3 3 3 3 2 1 1 1 1 2 2 3 3 2 2 2 1 2 3 1 0 1 2 1 2 3 3 2 2 3 2 3 3 3 3 4
7 6 6 6 6 5 5 5 5 4 3 2 1 1 1 1 1 2 3 3 2 2 2 1 2 2 2 1 0 0 1 2 1 2 3 2 3 3 4 3 3 3 3
7 7 6 6 5 5 5 6 6 4 3 2 2 2 1 1 1 2 3 3 2 2 2 2 2 2 1 2 1 1 1 1 1 1 3 3 3 3 3 3 3 3 3
6 6 6 6 5 5 6 6 6 6 5 4 3 2 1 1 1 1 2 2 2 2 2 2 2 2 2 2 1 1 2 2 2 2 2 3 3 3 3 3 3 3 3
Wind_Direction
148 154 150 143 136 129 125 123 122 122 122 123 124 127 128 129 128 128 127 125 123 120 115 110 107 106 106 106 105 106 108 111 112 115 115 115 115 116 115 114 112 112 114
143 152 151 145 139 133 130 128 127 126 126 126 127 129 130 130 129 128 127 126 124 121 116 112 110 110 110 109 109 110 112 115 117 119 118 118 119 118 117 117 117 120 119
141 149 149 146 142 137 135 133 132 131 130 131 131 132 133 132 131 130 128 126 124 121 118 115 113 111 111 112 112 112 114 115 116 117 112 109 119 122 122 122 123 123 124
141 145 148 148 145 141 139 138 136 135 135 135 136 137 137 135 134 133 131 129 127 124 121 119 116 113 113 113 113 114 115 114 114 110 101 112 122 129 127 125 125 125 124
138 142 153 150 148 145 143 143 142 141 141 141 142 142 141 140 140 138 136 133 129 127 124 121 119 116 115 115 115 116 119 121 119 108 100 102 113 133 131 130 129 127 126
136 143 155 152 152 150 148 148 148 147 147 147 147 147 146 146 145 143 142 138 133 130 127 124 122 119 117 116 115 115 118 123 116 113 109 114 125 138 137 136 135 132 131
137 144 156 156 155 153 152 152 153 152 152 152 153 154 153 151 151 151 148 143 140 137 134 131 127 122 120 118 113 107 110 120 121 126 127 131 141 143 144 141 139 138 137
143 145 156 160 157 156 156 157 157 157 157 158 160 161 161 160 162 163 158 155 153 149 145 141 136 130 124 117 110 99 97 110 128 140 143 150 157 153 151 148 145 145 144
138 138 145 155 158 159 159 160 160 161 163 164 166 168 170 169 170 173 173 171 164 160 154 152 149 144 136 127 116 101 94 105 123 144 158 161 171 165 161 157 155 152 151
134 136 134 136 139 146 155 162 164 165 166 168 171 174 177 177 178 183 181 186 179 175 173 172 170 162 153 143 131 110 97 99 124 150 155 176 180 177 173 170 167 164 162
151 140 129 126 128 133 144 165 165 168 170 171 175 178 174 157 158 180 197 202 197 195 196 196 196 185 170 150 138 101 88 99 133 156 168 191 190 188 184 180 178 176 174
160 155 141 134 134 137 154 143 136 142 146 145 136 149 124 117 153 191 237 224 214 212 221 221 220 202 141 70 15 51 81 137 152 183 202 206 201 198 193 188 186 186 185
160 160 153 145 138 139 130 130 119 112 120 128 135 129 123 121 105 20 20 284 261 228 268 279 278 77 121 129 87 128 201 219 208 218 220 221 213 207 202 197 194 193 192
148 152 150 147 143 145 137 139 135 131 139 144 155 150 143 147 153 135 75 302 282 116 181 243 294 11 103 104 137 211 219 225 235 230 240 236 224 216 209 205 202 200 198
149 150 147 142 144 147 141 148 149 154 161 160 164 172 161 158 164 145 120 101 94 96 144 161 175 147 97 87 111 167 253 254 255 241 253 251 236 224 215 209 209 208 206
150 150 145 143 148 147 148 152 151 155 157 155 164 173 157 153 152 144 137 113 81 109 154 167 160 129 100 93 45 322 285 280 267 262 252 258 243 232 225 218 216 215 214
147 144 144 142 136 146 157 164 155 156 149 144 147 149 146 148 147 139 133 122 121 109 110 98 82 82 84 65 349 308 291 280 273 269 264 253 249 239 235 233 230 224 220
144 150 155 147 143 153 155 154 150 148 142 133 129 135 150 149 140 131 128 125 108 100 103 106 96 91 49 28 312 297 297 291 277 271 268 258 245 244 244 241 236 233 229
158 155 144 131 144 145 140 130 125 122 118 120 124 135 149 145 139 133 131 127 112 100 92 104 91 110 96 305 282 277 296 292 284 282 277 272 261 253 249 253 249 244 240
156 148 133 125 137 130 115 101 95 92 90 100 124 145 147 145 146 137 134 130 123 114 104 100 98 86 82 303 305 317 313 305 302 296 295 294 283 270 261 255 255 257 253
148 146 144 148 158 141 133 137 135 134 126 114 131 143 145 143 142 141 132 126 129 131 143 144 128 95 28 10 25 344 331 334 337 332 331 323 317 302 282 259 247 246 255
156 159 159 165 163 161 154 147 136 128 119 108 81 83 105 138 148 150 147 147 145 130 117 120 124 116 50 56 109 67 350 343 345 1 352 354 340 335 320 299 273 257 254
163 169 167 165 159 155 145 123 101 81 70 70 63 55 35 100 142 141 149 145 145 141 145 149 144 145 154 56 94 143 152 250 309 326 343 353 344 345 338 326 322 296 268
175 167 159 160 155 152 152 147 145 146 152 170 153 127 69 64 107 132 133 132 133 132 139 151 137 142 145 166 62 40 179 172 197 312 321 330 335 338 335 333 331 318 299
167 162 157 152 154 154 152 149 142 137 141 127 111 109 84 44 63 112 127 128 132 131 136 129 127 136 150 166 179 168 129 88 163 204 290 319 326 313 312 310 309 315 316
160 158 157 158 161 155 151 149 150 150 147 141 139 138 118 54 41 79 118 128 138 142 150 156 150 152 163 169 175 179 176 178 192 192 236 276 296 298 303 301 296 304 305